Weather History for KAUH - April, 2013

Change the Weather History Date:

Friday, April 19, 2013

  Actual Average (KGRI) Record (KGRI)
Temperature  
Mean Temperature 37 °F 52 °F  
Max Temperature 48 °F 65 °F 89 °F (1987)
Min Temperature 27 °F 39 °F 22 °F (1907)
Degree Days  
Heating Degree Days 28 14  
Month to date heating degree days 317  
Since 1 July heating degree days 5874  
Cooling Degree Days 0 0  
Month to date cooling degree days 0  
Year to date cooling degree days 0  
Moisture  
Dew Point 26 °F    
Average Humidity 66    
Maximum Humidity 83    
Minimum Humidity 45    
Precipitation  
Precipitation 0.00 in 0.09 in 1.42 in (1968)
Month to date precipitation 1.43  
Year to date precipitation 4.44  
Snow  
Snow 0.00 in 0.10 in 2.00 in (1941)
Month to date snowfall 1.3  
Since 1 July snowfall 28.8  
Snow Depth -    
Sea Level Pressure  
Sea Level Pressure 30.00 in    
Wind  
Wind Speed 13 mph (NW)    
Max Wind Speed 22 mph    
Max Gust Speed 29 mph    
Visibility 10 miles    
Events      
T = Trace of Precipitation, MM = Missing Value Source: NWS Daily Summary

Daily Weather History Graph

Daily Weather History Graph

Search for Another Location

Airport or City:

Trip Planner

Search our weather history database for the weather conditions in past years. The results will help you decide how hot, cold, wet, or windy it might be!

Date:

Astronomy

Apr. 19, 2013 Rise Set
Actual Time 6:46 AM CDT 8:16 PM CDT
Civil Twilight 6:17 AM CDT 8:45 PM CDT
Nautical Twilight 5:43 AM CDT 9:19 PM CDT
Astronomical Twilight 5:06 AM CDT 9:56 PM CDT
Moon 1:59 PM CDT (4/19) 3:05 AM CDT (4/19)
Length of Visible Light 14h 27m
Length of Day
13h 29m
First Quarter, 62% of the Moon is Illuminated
Apr 19
First Quarter
Apr 25
Full
May 2
Last Quarter
May 9
New
May 17
First Quarter

Hourly Weather History & Observations

Time (CDT) Temp. Windchill Dew Point Humidity Pressure Visibility Wind Dir Wind Speed Gust Speed Precip Events Conditions
12:15 AM 31.8 °F 21.4 °F 25.7 °F 78% 29.97 in 10.0 mi NW 15.0 mph - N/A   Mostly Cloudy
12:35 AM 31.3 °F 21.6 °F 25.3 °F 79% 29.96 in 10.0 mi NW 12.7 mph - N/A   Scattered Clouds
12:55 AM 30.9 °F 21.7 °F 24.8 °F 78% 29.96 in 10.0 mi WNW 11.5 mph - N/A   Clear
1:15 AM 30.2 °F 21.9 °F 25.3 °F 82% 29.96 in 10.0 mi WNW 9.2 mph - N/A   Clear
1:35 AM 29.7 °F 20.1 °F 25.2 °F 83% 29.96 in 10.0 mi WNW 11.5 mph - N/A   Clear
1:55 AM 29.8 °F 19.8 °F 24.6 °F 81% 29.96 in 10.0 mi WNW 12.7 mph - N/A   Clear
2:15 AM 29.7 °F 19.6 °F 24.4 °F 81% 29.96 in 10.0 mi WNW 12.7 mph - N/A   Clear
2:35 AM 29.3 °F 19.1 °F 24.1 °F 81% 29.95 in 10.0 mi WNW 12.7 mph - N/A   Clear
2:55 AM 28.9 °F 19.8 °F 23.9 °F 81% 29.95 in 10.0 mi WNW 10.4 mph - N/A   Clear
3:15 AM 28.9 °F 19.2 °F 23.7 °F 81% 29.95 in 10.0 mi WNW 11.5 mph - N/A   Clear
3:35 AM 28.6 °F 17.2 °F 23.4 °F 81% 29.95 in 10.0 mi WNW 15.0 mph - N/A   Clear
3:55 AM 28.9 °F 18.6 °F 23.0 °F 78% 29.95 in 10.0 mi WNW 12.7 mph 19.6 mph N/A   Clear
4:15 AM 28.8 °F 18.4 °F 23.0 °F 79% 29.95 in 10.0 mi WNW 12.7 mph - N/A   Clear
4:35 AM 28.4 °F 17.5 °F 23.0 °F 80% 29.95 in 10.0 mi WNW 13.8 mph - N/A   Clear
4:55 AM 28.2 °F 17.7 °F 22.8 °F 80% 29.95 in 10.0 mi WNW 12.7 mph - N/A   Clear
5:15 AM 28.2 °F 17.7 °F 22.6 °F 80% 29.95 in 10.0 mi WNW 12.7 mph - N/A   Clear
5:55 AM 27.5 °F 18.0 °F 22.8 °F 83% 29.95 in 10.0 mi WNW 10.4 mph - N/A   Clear
6:15 AM 27.3 °F 17.1 °F 22.8 °F 83% 29.96 in 10.0 mi West 11.5 mph - N/A   Clear
6:35 AM 27.1 °F 17.5 °F 22.6 °F 83% 29.96 in 10.0 mi WNW 10.4 mph - N/A   Clear
6:55 AM 27.3 °F 17.1 °F 22.8 °F 83% 29.97 in 10.0 mi West 11.5 mph - N/A   Clear
7:15 AM 28.0 °F 18.1 °F 23.0 °F 81% 29.96 in 10.0 mi WNW 11.5 mph - N/A   Clear
7:35 AM 28.9 °F 18.6 °F 23.5 °F 80% 29.97 in 10.0 mi WNW 12.7 mph 18.4 mph N/A   Clear
7:55 AM 29.7 °F 19.6 °F 23.9 °F 79% 29.97 in 10.0 mi WNW 12.7 mph - N/A   Clear
8:15 AM 31.1 °F 21.9 °F 23.9 °F 75% 29.97 in 10.0 mi WNW 11.5 mph - N/A   Clear
8:35 AM 32.0 °F 23.0 °F 24.1 °F 73% 29.97 in 10.0 mi WNW 11.5 mph - N/A   Clear
8:55 AM 32.7 °F 23.4 °F 24.3 °F 71% 29.97 in 10.0 mi WNW 12.7 mph - N/A   Scattered Clouds
9:15 AM 33.1 °F 24.4 °F 24.6 °F 71% 29.97 in 10.0 mi WNW 11.5 mph 18.4 mph N/A   Scattered Clouds
9:55 AM 34.2 °F 25.7 °F 25.0 °F 69% 29.97 in 10.0 mi WNW 11.5 mph - N/A   Overcast
10:15 AM 34.9 °F 26.6 °F 25.3 °F 68% 29.97 in 10.0 mi WNW 11.5 mph - N/A   Overcast
10:35 AM 36.7 °F 26.9 °F 24.6 °F 62% 29.98 in 10.0 mi NW 17.3 mph - N/A   Scattered Clouds
10:55 AM 37.9 °F 29.2 °F 23.9 °F 57% 29.98 in 10.0 mi NW 15.0 mph - N/A   Mostly Cloudy
11:15 AM 38.5 °F 29.9 °F 22.5 °F 53% 29.98 in 10.0 mi WNW 15.0 mph 18.4 mph N/A   Mostly Cloudy
11:35 AM 40.1 °F 31.6 °F 23.7 °F 52% 29.99 in 10.0 mi NW 16.1 mph - N/A   Scattered Clouds
11:55 AM 41.0 °F 32.5 °F 24.4 °F 52% 29.99 in 10.0 mi NW 17.3 mph 21.9 mph N/A   Clear
12:15 PM 41.9 °F 34.0 °F 25.0 °F 51% 29.99 in 10.0 mi NNW 16.1 mph - N/A   Clear
12:35 PM 43.2 °F 36.2 °F 27.1 °F 53% 29.99 in 10.0 mi WNW 13.8 mph 27.6 mph N/A   Scattered Clouds
12:55 PM 43.5 °F 35.2 °F 26.6 °F 51% 29.99 in 10.0 mi NNW 19.6 mph - N/A   Scattered Clouds
1:15 PM 44.8 °F 36.9 °F 28.4 °F 53% 29.99 in 10.0 mi NW 19.6 mph 25.3 mph N/A   Scattered Clouds
1:35 PM 45.3 °F 38.1 °F 29.7 °F 54% 29.99 in 10.0 mi WNW 17.3 mph 24.2 mph N/A   Scattered Clouds
1:55 PM 45.9 °F 38.3 °F 30.0 °F 54% 29.99 in 10.0 mi NW 19.6 mph 25.3 mph N/A   Clear
2:15 PM 45.5 °F 38.6 °F 28.6 °F 52% 29.99 in 10.0 mi NW 16.1 mph 25.3 mph N/A   Clear
2:35 PM 45.1 °F 37.6 °F 29.7 °F 55% 30.00 in 10.0 mi NNW 18.4 mph 21.9 mph N/A   Mostly Cloudy
2:55 PM 46.0 °F 38.8 °F 28.4 °F 50% 30.00 in 10.0 mi NNW 18.4 mph 26.5 mph N/A   Overcast
3:15 PM 46.0 °F 38.8 °F 28.2 °F 50% 30.00 in 10.0 mi NNW 18.4 mph 24.2 mph N/A   Scattered Clouds
3:35 PM 47.3 °F - 28.9 °F 49% 29.99 in 10.0 mi NNW 16.1 mph 21.9 mph N/A   Mostly Cloudy
3:55 PM 46.4 °F 38.5 °F 28.0 °F 49% 29.99 in 10.0 mi NW 21.9 mph 26.5 mph N/A   Mostly Cloudy
4:15 PM 46.8 °F - 27.1 °F 46% 30.00 in 10.0 mi NNW 20.7 mph 28.8 mph N/A   Scattered Clouds
4:35 PM 46.9 °F - 27.5 °F 47% 29.99 in 10.0 mi NW 16.1 mph - N/A   Scattered Clouds
4:55 PM 47.1 °F - 27.1 °F 46% 30.00 in 10.0 mi NNW 21.9 mph 25.3 mph N/A   Scattered Clouds
5:15 PM 46.9 °F - 26.4 °F 45% 30.00 in 10.0 mi NW 19.6 mph 25.3 mph N/A   Scattered Clouds
5:35 PM 45.9 °F 38.8 °F 27.0 °F 48% 30.01 in 10.0 mi North 17.3 mph - N/A   Scattered Clouds
5:55 PM 46.4 °F 40.4 °F 26.2 °F 45% 30.01 in 10.0 mi NNW 13.8 mph 18.4 mph N/A   Scattered Clouds
6:15 PM 46.8 °F - 27.7 °F 47% 30.02 in 10.0 mi North 15.0 mph 21.9 mph N/A   Scattered Clouds
6:35 PM 45.7 °F 39.8 °F 26.1 °F 46% 30.02 in 10.0 mi North 12.7 mph - N/A   Clear
6:55 PM 45.0 °F 38.2 °F 25.5 °F 47% 30.02 in 10.0 mi North 15.0 mph - N/A   Clear
7:15 PM 44.6 °F 39.2 °F 25.9 °F 48% 30.03 in 10.0 mi North 10.4 mph - N/A   Clear
7:35 PM 43.7 °F 38.1 °F 25.7 °F 49% 30.03 in 10.0 mi North 10.4 mph - N/A   Clear
7:55 PM 42.3 °F 36.8 °F 26.8 °F 54% 30.04 in 10.0 mi North 9.2 mph - N/A   Clear
8:15 PM 40.1 °F 36.1 °F 26.8 °F 59% 30.05 in 10.0 mi North 5.8 mph - N/A   Clear
8:35 PM 38.1 °F 33.7 °F 28.4 °F 68% 30.05 in 10.0 mi North 5.8 mph - N/A   Clear
8:55 PM 35.8 °F 30.9 °F 28.8 °F 76% 30.05 in 10.0 mi NNE 5.8 mph - N/A   Clear
9:15 PM 35.8 °F 31.9 °F 27.5 °F 72% 30.06 in 10.0 mi NE 4.6 mph - N/A   Clear
9:35 PM 34.9 °F 29.9 °F 26.8 °F 72% 30.07 in 10.0 mi NE 5.8 mph - N/A   Clear
9:55 PM 34.3 °F 29.2 °F 27.3 °F 76% 30.08 in 10.0 mi NE 5.8 mph - N/A   Clear
10:15 PM 33.8 °F 29.6 °F 27.3 °F 77% 30.08 in 10.0 mi NE 4.6 mph - N/A   Clear
10:35 PM 32.0 °F 28.7 °F 26.4 °F 80% 30.08 in 10.0 mi East 3.5 mph - N/A   Clear
10:55 PM 32.7 °F 28.3 °F 27.0 °F 79% 30.09 in 10.0 mi East 4.6 mph - N/A   Clear
11:15 PM 32.5 °F 28.1 °F 27.0 °F 80% 30.09 in 10.0 mi East 4.6 mph - N/A   Clear
11:35 PM 32.0 °F 28.7 °F 26.4 °F 80% 30.08 in 10.0 mi East 3.5 mph - N/A   Clear
11:55 PM 32.9 °F - 26.2 °F 76% 30.09 in 10.0 mi Calm Calm - N/A   Clear